Location: Bern
(46.9451°N, 7.4426°E)
Time: 22:37:03
(UTC+01:00)

ISS - Visible Passes

Search period start: 09 February 2026 00:00
Search period end: 19 February 2026 00:00
Orbit: 414 x 429 km, 51.6° (Epoch: 9 February)

Date Brightness Start Highest point End Pass type
(mag) Time Alt. Az. Time Alt. Az. Time Alt. Az.
11 Feb -1.3 07:06:08 10° SSW 07:08:53 24° SE 07:11:38 10° E visible
12 Feb -0.8 06:19:55 10° S 06:22:02 16° SE 06:24:08 10° E visible
14 Feb -2.4 06:21:21 10° SSW 06:24:28 38° SE 06:27:36 10° ENE visible
15 Feb -1.8 05:36:22 20° S 05:37:31 25° SE 05:40:19 10° E visible
16 Feb -0.8 04:51:33 15° ESE 04:51:33 15° ESE 04:52:47 10° E visible
16 Feb -3.8 06:24:33 17° WSW 06:27:02 88° SSE 06:30:23 10° ENE visible
17 Feb -3.5 05:39:35 55° S 05:39:57 60° SSE 05:43:16 10° ENE visible
18 Feb -1.3 04:54:29 23° E 04:54:29 23° E 04:56:03 10° ENE visible
18 Feb -3.4 06:27:29 18° W 06:29:42 50° NNW 06:32:58 10° ENE visible
